AAL979 KDFW-KRDU

Flight info

Callsign AAL979
Flight time 2h 9m
Altitude 35000
Route TRYTN4 LOOSE MEM VXV KPASS ALDAN4
Aircraft A321/M-SDE3FGHIRWY/LB1

Departure

Time 2026-05-06 21:32
Airport Dallas Fort Worth International Airport (KDFW)

Arrival

Time 2026-05-06 23:42
Airport Raleigh-Durham International Airport (KRDU)
Time Latitude Longitude Altitude Speed Heading
2026-05-06 20:39 32.89745 -97.03497 587 ft 0 kts 273°
2026-05-06 21:18 32.89744 -97.03482 587 ft 4 kts 273°
2026-05-06 21:19 32.89743 -97.03457 587 ft 3 kts 273°
2026-05-06 21:19 32.89743 -97.03427 587 ft 3 kts 247°
2026-05-06 21:19 32.89752 -97.03403 587 ft 4 kts 245°
2026-05-06 21:19 32.89755 -97.03396 587 ft 0 kts 245°
2026-05-06 21:24 32.89755 -97.03397 587 ft 0 kts 245°
2026-05-06 21:24 32.89754 -97.03399 587 ft 1 kts 245°
2026-05-06 21:25 32.89749 -97.03407 587 ft 1 kts 227°
2026-05-06 21:25 32.89739 -97.03411 587 ft 3 kts 196°
2026-05-06 21:25 32.89711 -97.03388 587 ft 6 kts 113°
2026-05-06 21:25 32.89706 -97.03330 586 ft 8 kts 98°
2026-05-06 21:26 32.89661 -97.03314 586 ft 8 kts 184°
2026-05-06 21:26 32.89604 -97.03317 586 ft 9 kts 180°
2026-05-06 21:26 32.89539 -97.03317 586 ft 10 kts 180°
2026-05-06 21:26 32.89462 -97.03317 585 ft 12 kts 180°
2026-05-06 21:27 32.89373 -97.03318 585 ft 14 kts 180°
2026-05-06 21:27 32.89271 -97.03318 583 ft 16 kts 180°
2026-05-06 21:27 32.89158 -97.03319 583 ft 17 kts 180°
2026-05-06 21:27 32.89035 -97.03319 583 ft 18 kts 180°
2026-05-06 21:28 32.88910 -97.03320 582 ft 18 kts 180°
2026-05-06 21:28 32.88783 -97.03320 582 ft 19 kts 179°
2026-05-06 21:28 32.88656 -97.03321 582 ft 18 kts 180°
2026-05-06 21:28 32.88534 -97.03319 576 ft 13 kts 175°
2026-05-06 21:29 32.88441 -97.03288 576 ft 14 kts 176°
2026-05-06 21:29 32.88344 -97.03288 577 ft 14 kts 180°
2026-05-06 21:29 32.88250 -97.03289 579 ft 12 kts 180°
2026-05-06 21:29 32.88163 -97.03290 575 ft 13 kts 180°
2026-05-06 21:30 32.88075 -97.03291 576 ft 13 kts 180°
2026-05-06 21:30 32.87990 -97.03277 577 ft 12 kts 142°
2026-05-06 21:30 32.87975 -97.03185 580 ft 12 kts 92°
2026-05-06 21:30 32.87975 -97.03071 574 ft 16 kts 88°
2026-05-06 21:31 32.88056 -97.03006 574 ft 15 kts 359°
2026-05-06 21:31 32.88191 -97.03008 576 ft 40 kts 359°
2026-05-06 21:31 32.88728 -97.03008 571 ft 111 kts
2026-05-06 21:31 32.89696 -97.02999 581 ft 164 kts
2026-05-06 21:32 32.90908 -97.02996 957 ft 177 kts 360°
2026-05-06 21:32 32.93374 -97.02981 2364 ft 177 kts
2026-05-06 21:32 32.94594 -97.02916 2942 ft 178 kts
2026-05-06 21:33 32.95891 -97.02871 3168 ft 199 kts
2026-05-06 21:33 32.97355 -97.02829 3331 ft 222 kts
2026-05-06 21:33 32.98988 -97.02782 3505 ft 247 kts
2026-05-06 21:33 33.00748 -97.02733 3995 ft 260 kts
2026-05-06 21:34 33.02574 -97.02680 4726 ft 265 kts
2026-05-06 21:34 33.04436 -97.02596 5440 ft 270 kts
2026-05-06 21:34 33.06214 -97.01848 6129 ft 276 kts 34°
2026-05-06 21:34 33.07531 -97.00176 6850 ft 279 kts 61°
2026-05-06 21:35 33.08077 -96.97944 7522 ft 285 kts 85°
2026-05-06 21:35 33.08222 -96.95597 8191 ft 290 kts 86°
2026-05-06 21:35 33.08245 -96.93172 8867 ft 293 kts 97°
2026-05-06 21:35 33.07919 -96.90751 9552 ft 297 kts 101°
2026-05-06 21:36 33.07558 -96.88285 10236 ft 302 kts 101°
2026-05-06 21:36 33.07205 -96.85807 10689 ft 315 kts 101°
2026-05-06 21:36 33.06783 -96.83148 10828 ft 337 kts 107°
2026-05-06 21:36 33.05961 -96.80449 11042 ft 353 kts 115°
2026-05-06 21:37 33.05010 -96.77703 11568 ft 360 kts 115°
2026-05-06 21:37 33.04064 -96.74948 12146 ft 364 kts 115°
2026-05-06 21:37 33.03099 -96.72123 12716 ft 369 kts 115°
2026-05-06 21:37 33.02129 -96.69277 13278 ft 373 kts 115°
2026-05-06 21:38 33.01146 -96.66404 13809 ft 377 kts 115°
2026-05-06 21:38 33.00145 -96.63493 14389 ft 381 kts 115°
2026-05-06 21:38 32.99143 -96.60584 14945 ft 385 kts 115°
2026-05-06 21:38 32.98118 -96.57611 15498 ft 389 kts 116°
2026-05-06 21:39 32.97082 -96.54609 16052 ft 393 kts 116°
2026-05-06 21:39 32.96039 -96.51587 16596 ft 397 kts 116°
2026-05-06 21:39 32.94979 -96.48533 17133 ft 401 kts 116°
2026-05-06 21:39 32.93920 -96.45479 17655 ft 404 kts 116°
2026-05-06 21:40 32.92840 -96.42360 18168 ft 409 kts 116°
2026-05-06 21:40 32.91798 -96.39215 18664 ft 414 kts 111°
2026-05-06 21:40 32.91130 -96.35801 19168 ft 422 kts 100°
2026-05-06 21:40 32.90990 -96.32284 19656 ft 429 kts 89°
2026-05-06 21:41 32.91387 -96.28774 20113 ft 435 kts 78°
2026-05-06 21:41 32.92324 -96.25332 20596 ft 439 kts 69°
2026-05-06 21:41 32.93448 -96.21925 21065 ft 443 kts 69°
2026-05-06 21:41 32.94569 -96.18485 21540 ft 446 kts 69°
2026-05-06 21:42 32.95684 -96.15036 21989 ft 450 kts 69°
2026-05-06 21:42 32.96809 -96.11543 22410 ft 453 kts 69°
2026-05-06 21:42 32.97936 -96.08031 22816 ft 457 kts 69°
2026-05-06 21:42 32.99078 -96.04481 23210 ft 459 kts 69°
2026-05-06 21:43 33.00228 -96.00906 23584 ft 462 kts 69°
2026-05-06 21:43 33.01370 -95.97358 23958 ft 464 kts 69°
2026-05-06 21:43 33.02536 -95.93743 24309 ft 468 kts 69°
2026-05-06 21:43 33.03709 -95.90098 24683 ft 471 kts 69°
2026-05-06 21:44 33.04877 -95.86460 25023 ft 474 kts 69°
2026-05-06 21:44 33.06063 -95.82764 25352 ft 476 kts 69°
2026-05-06 21:44 33.07251 -95.79063 25686 ft 479 kts 69°
2026-05-06 21:44 33.08451 -95.75324 26016 ft 482 kts 69°
2026-05-06 21:45 33.09654 -95.71578 26348 ft 485 kts 69°
2026-05-06 21:45 33.10855 -95.67836 26656 ft 488 kts 69°
2026-05-06 21:45 33.12075 -95.64023 26974 ft 490 kts 69°
2026-05-06 21:45 33.13280 -95.60246 27280 ft 493 kts 69°
2026-05-06 21:46 33.14508 -95.56397 27597 ft 495 kts 69°
2026-05-06 21:46 33.15738 -95.52536 27894 ft 498 kts 69°
2026-05-06 21:46 33.16955 -95.48705 28178 ft 501 kts 69°
2026-05-06 21:46 33.18190 -95.44809 28461 ft 503 kts 69°
2026-05-06 21:47 33.19430 -95.40894 28741 ft 505 kts 69°
2026-05-06 21:47 33.20685 -95.36939 29008 ft 508 kts 69°
2026-05-06 21:47 33.21936 -95.32987 29266 ft 510 kts 69°
2026-05-06 21:47 33.23201 -95.28998 29527 ft 512 kts 69°
2026-05-06 21:48 33.24463 -95.25008 29777 ft 515 kts 69°
2026-05-06 21:48 33.25713 -95.21042 30032 ft 517 kts 69°
2026-05-06 21:48 33.26985 -95.16995 30282 ft 519 kts 69°
2026-05-06 21:48 33.28263 -95.12940 30540 ft 521 kts 69°
2026-05-06 21:49 33.29532 -95.08915 30811 ft 523 kts 69°
2026-05-06 21:49 33.30820 -95.04822 31167 ft 522 kts 70°
2026-05-06 21:49 33.32094 -95.00750 31512 ft 522 kts 70°
2026-05-06 21:49 33.33350 -94.96723 31847 ft 521 kts 70°
2026-05-06 21:50 33.34623 -94.92642 32168 ft 521 kts 70°
2026-05-06 21:50 33.35890 -94.88579 32488 ft 521 kts 70°
2026-05-06 21:50 33.37159 -94.84504 32795 ft 521 kts 70°
2026-05-06 21:50 33.38412 -94.80478 33098 ft 521 kts 70°
2026-05-06 21:51 33.39675 -94.76417 33392 ft 521 kts 70°
2026-05-06 21:51 33.40941 -94.72342 33701 ft 521 kts 70°
2026-05-06 21:51 33.42192 -94.68306 33993 ft 521 kts 70°
2026-05-06 21:51 33.43450 -94.64243 34284 ft 520 kts 70°
2026-05-06 21:52 33.44711 -94.60164 34567 ft 520 kts 70°
2026-05-06 21:52 33.45966 -94.56093 34833 ft 520 kts 70°
2026-05-06 21:52 33.47218 -94.52027 34995 ft 520 kts 70°
2026-05-06 21:52 33.48475 -94.47948 35027 ft 517 kts 70°
2026-05-06 21:53 33.50945 -94.39921 35022 ft 515 kts 70°
2026-05-06 21:53 33.53425 -94.31848 35019 ft 515 kts 70°
2026-05-06 21:54 33.55884 -94.23790 35010 ft 515 kts 70°
2026-05-06 21:54 33.58304 -94.15696 35015 ft 516 kts 71°
2026-05-06 21:55 33.60698 -94.07588 35008 ft 516 kts 71°
2026-05-06 21:55 33.63111 -93.99439 35012 ft 517 kts 70°
2026-05-06 21:56 33.65517 -93.91335 35018 ft 517 kts 70°
2026-05-06 21:56 33.67921 -93.83215 35021 ft 517 kts 70°
2026-05-06 21:57 33.69920 -93.76413 35023 ft 518 kts 71°
2026-05-06 21:57 33.72309 -93.68255 35025 ft 517 kts 71°
2026-05-06 21:58 33.74698 -93.60077 35027 ft 517 kts 71°
2026-05-06 21:58 33.77084 -93.51954 35028 ft 517 kts 70°
2026-05-06 21:59 33.79463 -93.43807 35027 ft 516 kts 71°
2026-05-06 21:59 33.81817 -93.35677 35032 ft 516 kts 71°
2026-05-06 22:00 33.84188 -93.27478 35038 ft 516 kts 71°
2026-05-06 22:00 33.86542 -93.19344 35041 ft 515 kts 71°
2026-05-06 22:01 33.88883 -93.11209 35043 ft 515 kts 71°
2026-05-06 22:01 33.91627 -93.03288 35045 ft 514 kts 64°
2026-05-06 22:02 33.94596 -92.95442 35047 ft 513 kts 64°
2026-05-06 22:02 33.97537 -92.87647 35051 ft 513 kts 65°
2026-05-06 22:03 34.00475 -92.79815 35051 ft 513 kts 65°
2026-05-06 22:03 34.03408 -92.71963 35047 ft 513 kts 65°
2026-05-06 22:04 34.06339 -92.64110 35044 ft 514 kts 65°
2026-05-06 22:04 34.09264 -92.56267 35047 ft 514 kts 65°
2026-05-06 22:05 34.12176 -92.48428 35050 ft 513 kts 65°
2026-05-06 22:05 34.15102 -92.40542 35050 ft 513 kts 65°
2026-05-06 22:06 34.18007 -92.32696 35045 ft 513 kts 65°
2026-05-06 22:06 34.20893 -92.24890 35040 ft 512 kts 65°
2026-05-06 22:07 34.23785 -92.17027 35043 ft 512 kts 65°
2026-05-06 22:07 34.26676 -92.09140 35035 ft 512 kts 65°
2026-05-06 22:08 34.29550 -92.01301 35030 ft 512 kts 65°
2026-05-06 22:08 34.32433 -91.93429 35027 ft 512 kts 65°
2026-05-06 22:09 34.35311 -91.85518 35029 ft 511 kts 65°
2026-05-06 22:09 34.38163 -91.77682 35035 ft 511 kts 65°
2026-05-06 22:10 34.41027 -91.69807 35041 ft 512 kts 65°
2026-05-06 22:10 34.43883 -91.61903 35046 ft 512 kts 65°
2026-05-06 22:11 34.46740 -91.53982 35052 ft 512 kts 65°
2026-05-06 22:11 34.49578 -91.46114 35058 ft 512 kts 65°
2026-05-06 22:12 34.52438 -91.38155 35064 ft 512 kts 65°
2026-05-06 22:12 34.55266 -91.30245 35058 ft 513 kts 65°
2026-05-06 22:13 34.58097 -91.22320 35063 ft 513 kts 65°
2026-05-06 22:13 34.60925 -91.14384 35060 ft 513 kts 65°
2026-05-06 22:14 34.63763 -91.06408 35057 ft 514 kts 65°
2026-05-06 22:14 34.66589 -90.98465 35056 ft 514 kts 65°
2026-05-06 22:15 34.69417 -90.90479 35048 ft 514 kts 65°
2026-05-06 22:15 34.72243 -90.82469 35042 ft 513 kts 65°
2026-05-06 22:16 34.75043 -90.74525 35037 ft 513 kts 65°
2026-05-06 22:16 34.77846 -90.66561 35027 ft 514 kts 65°
2026-05-06 22:17 34.80658 -90.58533 35024 ft 513 kts 65°
2026-05-06 22:17 34.83438 -90.50546 35015 ft 514 kts 65°
2026-05-06 22:18 34.86221 -90.42560 35018 ft 514 kts 65°
2026-05-06 22:18 34.89027 -90.34499 35013 ft 514 kts 65°
2026-05-06 22:19 34.91804 -90.26496 35014 ft 514 kts 66°
2026-05-06 22:19 34.94573 -90.18497 35014 ft 515 kts 66°
2026-05-06 22:20 34.97331 -90.10508 35013 ft 515 kts 66°
2026-05-06 22:20 35.00106 -90.02431 35010 ft 515 kts 66°
2026-05-06 22:21 35.02250 -89.94124 35017 ft 516 kts 78°
2026-05-06 22:21 35.03716 -89.85529 35016 ft 516 kts 78°
2026-05-06 22:22 35.05179 -89.76973 35016 ft 516 kts 78°
2026-05-06 22:22 35.06634 -89.68444 35013 ft 516 kts 78°
2026-05-06 22:23 35.08106 -89.59840 35013 ft 516 kts 78°
2026-05-06 22:23 35.09520 -89.51537 35012 ft 516 kts 78°
2026-05-06 22:24 35.10941 -89.43094 35012 ft 516 kts 78°
2026-05-06 22:24 35.12367 -89.34529 35009 ft 515 kts 78°
2026-05-06 22:25 35.13789 -89.25979 35012 ft 515 kts 78°
2026-05-06 22:25 35.15226 -89.17369 35015 ft 515 kts 78°
2026-05-06 22:26 35.16643 -89.08817 35018 ft 515 kts 78°
2026-05-06 22:26 35.18060 -89.00206 35018 ft 515 kts 78°
2026-05-06 22:27 35.19472 -88.91625 35023 ft 515 kts 78°
2026-05-06 22:27 35.20872 -88.83083 35024 ft 515 kts 78°
2026-05-06 22:28 35.22268 -88.74481 35025 ft 515 kts 78°
2026-05-06 22:28 35.23646 -88.65932 35029 ft 515 kts 78°
2026-05-06 22:29 35.25022 -88.57358 35027 ft 514 kts 79°
2026-05-06 22:29 35.26397 -88.48725 35031 ft 515 kts 79°
2026-05-06 22:30 35.27760 -88.40157 35030 ft 515 kts 79°
2026-05-06 22:30 35.29120 -88.31580 35030 ft 515 kts 79°
2026-05-06 22:31 35.30488 -88.22950 35029 ft 515 kts 79°
2026-05-06 22:31 35.31840 -88.14351 35029 ft 515 kts 79°
2026-05-06 22:32 35.33190 -88.05730 35028 ft 515 kts 79°
2026-05-06 22:32 35.34532 -87.97120 35029 ft 515 kts 79°
2026-05-06 22:33 35.35857 -87.88558 35032 ft 515 kts 79°
2026-05-06 22:33 35.37190 -87.79908 35038 ft 516 kts 79°
2026-05-06 22:34 35.38507 -87.71250 35039 ft 516 kts 79°
2026-05-06 22:34 35.39817 -87.62651 35039 ft 515 kts 79°
2026-05-06 22:35 35.41137 -87.53998 35034 ft 515 kts 79°
2026-05-06 22:35 35.42440 -87.45376 35036 ft 515 kts 79°
2026-05-06 22:36 35.43727 -87.36790 35038 ft 515 kts 79°
2026-05-06 22:36 35.45022 -87.28127 35037 ft 514 kts 79°
2026-05-06 22:37 35.46300 -87.19527 35038 ft 514 kts 79°
2026-05-06 22:37 35.47579 -87.10884 35041 ft 514 kts 79°
2026-05-06 22:38 35.48851 -87.02300 35040 ft 514 kts 79°
2026-05-06 22:38 35.50125 -86.93633 35041 ft 513 kts 79°
2026-05-06 22:39 35.51365 -86.85041 35037 ft 513 kts 79°
2026-05-06 22:39 35.52600 -86.76442 35035 ft 513 kts 79°
2026-05-06 22:40 35.53845 -86.67791 35035 ft 513 kts 79°
2026-05-06 22:40 35.55082 -86.59204 35034 ft 513 kts 79°
2026-05-06 22:41 35.56920 -86.46348 35023 ft 513 kts 79°
2026-05-06 22:42 35.58144 -86.37688 35016 ft 513 kts 79°
2026-05-06 22:42 35.59360 -86.29053 35011 ft 513 kts 79°
2026-05-06 22:43 35.60569 -86.20431 35006 ft 513 kts 79°
2026-05-06 22:43 35.61766 -86.11798 35010 ft 514 kts 79°
2026-05-06 22:44 35.62970 -86.03109 35021 ft 514 kts 79°
2026-05-06 22:44 35.64163 -85.94466 35024 ft 513 kts 79°
2026-05-06 22:45 35.65347 -85.85835 35027 ft 514 kts 80°
2026-05-06 22:45 35.66527 -85.77183 35034 ft 514 kts 79°
2026-05-06 22:46 35.67698 -85.68536 35036 ft 514 kts 80°
2026-05-06 22:46 35.68858 -85.59875 35037 ft 513 kts 80°
2026-05-06 22:47 35.69825 -85.52642 35035 ft 512 kts 80°
2026-05-06 22:47 35.70977 -85.44024 35027 ft 512 kts 80°
2026-05-06 22:48 35.72123 -85.35346 35027 ft 512 kts 80°
2026-05-06 22:48 35.73262 -85.26719 35028 ft 512 kts 80°
2026-05-06 22:49 35.74402 -85.18094 35023 ft 511 kts 80°
2026-05-06 22:49 35.75526 -85.09481 35021 ft 511 kts 80°
2026-05-06 22:50 35.76645 -85.00814 35023 ft 511 kts 80°
2026-05-06 22:50 35.77757 -84.92179 35015 ft 511 kts 80°
2026-05-06 22:51 35.78863 -84.83522 35015 ft 510 kts 80°
2026-05-06 22:51 35.79963 -84.74892 35009 ft 510 kts 80°
2026-05-06 22:52 35.81043 -84.66307 35013 ft 510 kts 80°
2026-05-06 22:52 35.82137 -84.57641 35013 ft 509 kts 80°
2026-05-06 22:53 35.83216 -84.49055 35006 ft 509 kts 80°
2026-05-06 22:53 35.84296 -84.40392 34999 ft 510 kts 80°
2026-05-06 22:54 35.85357 -84.31803 35002 ft 509 kts 80°
2026-05-06 22:54 35.86420 -84.23141 35004 ft 510 kts 80°
2026-05-06 22:55 35.87458 -84.14537 34998 ft 510 kts 80°
2026-05-06 22:55 35.88510 -84.05881 34981 ft 509 kts 80°
2026-05-06 22:56 35.89553 -83.97265 34981 ft 509 kts 81°
2026-05-06 22:56 35.90949 -83.88698 34979 ft 506 kts 69°
2026-05-06 22:57 35.93734 -83.80799 34981 ft 504 kts 62°
2026-05-06 22:57 35.96663 -83.72922 34981 ft 504 kts 62°
2026-05-06 22:58 35.99553 -83.65087 34980 ft 503 kts 62°
2026-05-06 22:58 36.02463 -83.57207 34987 ft 503 kts 62°
2026-05-06 22:59 36.05359 -83.49365 34986 ft 503 kts 62°
2026-05-06 22:59 36.08392 -83.41547 34959 ft 500 kts 51°
2026-05-06 22:59 36.10635 -83.38309 34957 ft 490 kts 36°
2026-05-06 23:00 36.13205 -83.35602 34957 ft 488 kts 33°
2026-05-06 23:00 36.18496 -83.30256 34958 ft 491 kts 33°
2026-05-06 23:01 36.23775 -83.24953 34963 ft 492 kts 33°
2026-05-06 23:01 36.29126 -83.19586 34975 ft 493 kts 33°
2026-05-06 23:02 36.34441 -83.14271 34984 ft 493 kts 33°
2026-05-06 23:02 36.39537 -83.08508 35003 ft 501 kts 50°
2026-05-06 23:02 36.41277 -83.04764 35013 ft 507 kts 66°
2026-05-06 23:03 36.42289 -83.00557 35010 ft 508 kts 75°
2026-05-06 23:03 36.43959 -82.92074 34997 ft 507 kts 75°
2026-05-06 23:04 36.45617 -82.83567 34994 ft 507 kts 75°
2026-05-06 23:04 36.47287 -82.75071 35000 ft 505 kts 75°
2026-05-06 23:05 36.48950 -82.66632 34992 ft 504 kts 75°
2026-05-06 23:05 36.50614 -82.58120 34999 ft 503 kts 75°
2026-05-06 23:06 36.52253 -82.49698 34988 ft 503 kts 75°
2026-05-06 23:06 36.53888 -82.41227 34985 ft 503 kts 75°
2026-05-06 23:07 36.55507 -82.32801 34985 ft 502 kts 75°
2026-05-06 23:07 36.57129 -82.24360 34984 ft 502 kts 75°
2026-05-06 23:08 36.58747 -82.15894 34986 ft 502 kts 75°
2026-05-06 23:08 36.60355 -82.07439 34985 ft 501 kts 75°
2026-05-06 23:09 36.61952 -81.98997 34995 ft 501 kts 75°
2026-05-06 23:09 36.63535 -81.90597 35003 ft 501 kts 75°
2026-05-06 23:10 36.65123 -81.82157 35001 ft 500 kts 74°
2026-05-06 23:10 36.66962 -81.73834 34997 ft 499 kts 71°
2026-05-06 23:11 36.69003 -81.65560 35010 ft 499 kts 71°
2026-05-06 23:11 36.71009 -81.57299 35011 ft 499 kts 72°
2026-05-06 23:12 36.72929 -81.48984 35015 ft 499 kts 72°
2026-05-06 23:12 36.74816 -81.40691 35018 ft 498 kts 72°
2026-05-06 23:13 36.76718 -81.32392 35031 ft 499 kts 72°
2026-05-06 23:13 36.78639 -81.24047 35038 ft 499 kts 72°
2026-05-06 23:14 36.80539 -81.15736 35037 ft 499 kts 72°
2026-05-06 23:14 36.82433 -81.07402 34660 ft 498 kts 72°
2026-05-06 23:14 36.83370 -81.03273 34069 ft 498 kts 72°
2026-05-06 23:15 36.84313 -80.99118 33528 ft 497 kts 72°
2026-05-06 23:15 36.85253 -80.94956 32973 ft 495 kts 72°
2026-05-06 23:15 36.86175 -80.90864 32417 ft 493 kts 73°
2026-05-06 23:15 36.87102 -80.86751 31861 ft 491 kts 73°
2026-05-06 23:16 36.88029 -80.82639 31293 ft 489 kts 73°
2026-05-06 23:16 36.88951 -80.78538 30749 ft 487 kts 73°
2026-05-06 23:16 36.89851 -80.74519 30231 ft 483 kts 74°
2026-05-06 23:16 36.90753 -80.70488 29702 ft 480 kts 74°
2026-05-06 23:17 36.91647 -80.66482 29290 ft 474 kts 74°
2026-05-06 23:17 36.92531 -80.62514 28736 ft 472 kts 74°
2026-05-06 23:17 36.93412 -80.58566 28174 ft 469 kts 74°
2026-05-06 23:17 36.94274 -80.54694 27760 ft 463 kts 74°
2026-05-06 23:18 36.95142 -80.50793 27219 ft 460 kts 74°
2026-05-06 23:18 36.95991 -80.46953 26728 ft 456 kts 74°
2026-05-06 23:18 36.96802 -80.43204 26407 ft 449 kts 75°
2026-05-06 23:18 36.97602 -80.39440 26051 ft 443 kts 75°
2026-05-06 23:19 36.98382 -80.35731 25719 ft 438 kts 75°
2026-05-06 23:19 36.99151 -80.32071 25385 ft 442 kts 75°
2026-05-06 23:19 36.99952 -80.28250 25056 ft 464 kts 75°
2026-05-06 23:19 37.00778 -80.24324 24658 ft 473 kts 75°
2026-05-06 23:20 37.01617 -80.20329 24289 ft 472 kts 75°
2026-05-06 23:20 37.02454 -80.16347 23908 ft 471 kts 75°
2026-05-06 23:20 37.03273 -80.12438 23538 ft 468 kts 75°
2026-05-06 23:20 37.03928 -80.08450 23171 ft 466 kts 84°
2026-05-06 23:21 37.03925 -80.04418 22809 ft 462 kts 98°
2026-05-06 23:21 37.03241 -80.00511 22445 ft 457 kts 111°
2026-05-06 23:21 37.01863 -79.96948 22173 ft 449 kts 126°
2026-05-06 23:21 37.00075 -79.93811 21931 ft 447 kts 129°
2026-05-06 23:22 36.98240 -79.90671 21677 ft 445 kts 129°
2026-05-06 23:22 36.96393 -79.87538 21417 ft 443 kts 129°
2026-05-06 23:22 36.94577 -79.84477 21180 ft 441 kts 129°
2026-05-06 23:22 36.92738 -79.81393 20934 ft 440 kts 129°
2026-05-06 23:23 36.90905 -79.78324 20678 ft 438 kts 129°
2026-05-06 23:23 36.89108 -79.75314 20429 ft 436 kts 129°
2026-05-06 23:23 36.87300 -79.72284 20182 ft 434 kts 129°
2026-05-06 23:23 36.85489 -79.69253 19929 ft 432 kts 129°
2026-05-06 23:24 36.83710 -79.66275 19681 ft 431 kts 129°
2026-05-06 23:24 36.81924 -79.63279 19430 ft 430 kts 129°
2026-05-06 23:24 36.80136 -79.60280 19179 ft 428 kts 129°
2026-05-06 23:24 36.78362 -79.57303 18929 ft 426 kts 129°
2026-05-06 23:25 36.76614 -79.54371 18679 ft 424 kts 129°
2026-05-06 23:25 36.74852 -79.51421 18428 ft 423 kts 129°
2026-05-06 23:25 36.73093 -79.48484 18178 ft 421 kts 129°
2026-05-06 23:25 36.71335 -79.45554 17925 ft 419 kts 129°
2026-05-06 23:26 36.69586 -79.42643 17676 ft 418 kts 129°
2026-05-06 23:26 36.67859 -79.39779 17427 ft 416 kts 129°
2026-05-06 23:26 36.66124 -79.36900 17176 ft 414 kts 129°
2026-05-06 23:26 36.64411 -79.34060 16924 ft 413 kts 129°
2026-05-06 23:27 36.62677 -79.31183 16666 ft 412 kts 129°
2026-05-06 23:27 36.60964 -79.28343 16178 ft 409 kts 129°
2026-05-06 23:27 36.59263 -79.25519 15695 ft 405 kts 129°
2026-05-06 23:27 36.57594 -79.22749 15208 ft 402 kts 129°
2026-05-06 23:28 36.55917 -79.19968 14723 ft 399 kts 129°
2026-05-06 23:28 36.54275 -79.17252 14248 ft 396 kts 129°
2026-05-06 23:28 36.52621 -79.14524 13767 ft 392 kts 129°
2026-05-06 23:28 36.50980 -79.11820 13300 ft 389 kts 129°
2026-05-06 23:29 36.49351 -79.09131 12837 ft 386 kts 129°
2026-05-06 23:29 36.47763 -79.06507 12377 ft 383 kts 129°
2026-05-06 23:29 36.46156 -79.03861 11915 ft 381 kts 129°
2026-05-06 23:29 36.44576 -79.01265 11463 ft 378 kts 129°
2026-05-06 23:30 36.42999 -78.98674 11005 ft 374 kts 129°
2026-05-06 23:30 36.41428 -78.96106 10550 ft 371 kts 129°
2026-05-06 23:30 36.39855 -78.93582 10107 ft 367 kts 132°
2026-05-06 23:30 36.38161 -78.91336 9858 ft 342 kts 137°
2026-05-06 23:31 36.36572 -78.89307 9600 ft 315 kts 137°
2026-05-06 23:31 36.35091 -78.87411 9069 ft 306 kts 137°
2026-05-06 23:31 36.33626 -78.85543 8730 ft 296 kts 137°
2026-05-06 23:31 36.32213 -78.83739 8599 ft 285 kts 137°
2026-05-06 23:32 36.30853 -78.82008 8511 ft 273 kts 137°
2026-05-06 23:32 36.29560 -78.80368 8390 ft 264 kts 138°
2026-05-06 23:32 36.28288 -78.78769 8273 ft 257 kts 138°
2026-05-06 23:32 36.27021 -78.77181 8011 ft 259 kts 138°
2026-05-06 23:33 36.25771 -78.75609 7685 ft 258 kts 138°
2026-05-06 23:33 36.24502 -78.74007 7372 ft 257 kts 138°
2026-05-06 23:33 36.23268 -78.72448 7067 ft 255 kts 138°
2026-05-06 23:33 36.22025 -78.70875 6759 ft 254 kts 137°
2026-05-06 23:34 36.20803 -78.69323 6460 ft 250 kts 138°
2026-05-06 23:34 36.19604 -78.67801 6175 ft 248 kts 138°
2026-05-06 23:34 36.18402 -78.66273 5883 ft 246 kts 138°
2026-05-06 23:34 36.17232 -78.64753 5671 ft 240 kts 137°
2026-05-06 23:35 36.16093 -78.63260 5529 ft 236 kts 137°
2026-05-06 23:35 36.14976 -78.61796 5348 ft 236 kts 137°
2026-05-06 23:35 36.13846 -78.60318 5195 ft 235 kts 137°
2026-05-06 23:35 36.12554 -78.59139 4942 ft 228 kts 162°
2026-05-06 23:36 36.10996 -78.58882 4227 ft 234 kts 186°
2026-05-06 23:36 36.09381 -78.59098 3905 ft 228 kts 190°
2026-05-06 23:36 36.07851 -78.59355 3717 ft 217 kts 191°
2026-05-06 23:36 36.06365 -78.59614 3374 ft 214 kts 190°
2026-05-06 23:37 36.05391 -78.59788 3142 ft 213 kts 190°
2026-05-06 23:37 36.03526 -78.60457 3018 ft 211 kts 212°
2026-05-06 23:37 36.02412 -78.61639 3021 ft 209 kts 225°
2026-05-06 23:37 36.01739 -78.62479 3011 ft 204 kts 225°
2026-05-06 23:38 36.00751 -78.63714 3017 ft 201 kts 225°
2026-05-06 23:38 35.99767 -78.64938 3015 ft 200 kts 225°
2026-05-06 23:38 35.98468 -78.66548 2883 ft 200 kts 225°
2026-05-06 23:38 35.97817 -78.67356 2739 ft 199 kts 225°
2026-05-06 23:39 35.96836 -78.68573 2486 ft 199 kts 225°
2026-05-06 23:39 35.95852 -78.69792 2223 ft 199 kts 225°
2026-05-06 23:39 35.94878 -78.71001 1980 ft 195 kts 225°
2026-05-06 23:39 35.93957 -78.72140 1716 ft 182 kts 225°
2026-05-06 23:40 35.93111 -78.73188 1477 ft 164 kts 225°
2026-05-06 23:40 35.92348 -78.74132 1280 ft 149 kts 225°
2026-05-06 23:40 35.91630 -78.75020 1079 ft 144 kts 225°
2026-05-06 23:40 35.90938 -78.75876 892 ft 142 kts 225°
2026-05-06 23:41 35.90245 -78.76734 699 ft 141 kts 225°
2026-05-06 23:41 35.89553 -78.77593 502 ft 141 kts 225°
2026-05-06 23:41 35.88887 -78.78416 392 ft 114 kts 225°
2026-05-06 23:41 35.88485 -78.78917 391 ft 65 kts 225°
2026-05-06 23:42 35.88221 -78.79242 392 ft 44 kts 225°
2026-05-06 23:42 35.88039 -78.79454 394 ft 24 kts 218°
2026-05-06 23:42 35.87948 -78.79472 393 ft 4 kts 151°
2026-05-06 23:42 35.87939 -78.79464 393 ft 0 kts 145°
2026-05-06 23:43 35.87935 -78.79461 393 ft 0 kts 145°
2026-05-06 23:43 35.87934 -78.79460 393 ft 0 kts 145°
2026-05-06 23:43 35.87927 -78.79451 393 ft 3 kts 122°
2026-05-06 23:44 35.87933 -78.79405 392 ft 8 kts 62°
2026-05-06 23:44 35.87930 -78.79338 392 ft 9 kts 115°
2026-05-06 23:44 35.87951 -78.79277 392 ft 9 kts 45°
2026-05-06 23:44 35.88000 -78.79219 392 ft 11 kts 45°
2026-05-06 23:45 35.88058 -78.79147 392 ft 13 kts 49°
2026-05-06 23:45 35.88037 -78.79062 392 ft 12 kts 134°
2026-05-06 23:45 35.87969 -78.78987 392 ft 14 kts 153°
2026-05-06 23:45 35.87886 -78.79032 392 ft 15 kts 227°
2026-05-06 23:46 35.87823 -78.79111 392 ft 11 kts 224°
2026-05-06 23:46 35.87790 -78.79151 392 ft 5 kts 224°
2026-05-06 23:46 35.87781 -78.79162 392 ft 1 kts 223°
2026-05-06 23:46 35.87770 -78.79177 392 ft 3 kts 234°
2026-05-06 23:47 35.87775 -78.79202 392 ft 3 kts 307°
2026-05-06 23:47 35.87789 -78.79220 392 ft 2 kts 316°
2026-05-06 23:47 35.87795 -78.79227 392 ft 0 kts 316°